SCP
0 0 0 0 0 0 0 0 0 0 -0 -0 -0 -0 -0 -0 0 0 0 0 0 0
0 0 0 0 0 0 0 0 0 -0 -0 -0 0 -0 -0 0 -0 0 0 0 0 0
0 0 0 0 0 0 0 0 0 0 0 -0 -0 -0 -0 0 0 0 0 0 0 0
0 0 0 0 0 0 0 0 0 0 0 -0 -0 -0 -0 0 0 -0 -0 0 0 0
0 0 0 0 0 0 0 0 0 0 0 -0 -0 -0 -0 -0 -0 -0 -0 -0 0 0
0 0 0 0 0 0 0 0 0 0 0 0 -0 -0 -0 -0 -0 -0 -0 -0 -0 0
0 0 0 0 0 0 0 0 0 0 0 0 0 0 -0 -0 -0 -0 -0 -0 -0 0
0 0 0 0 0 0 1 0 0 0 0 0 0 0 0 -0 -0 -0 -0 -0 -0 -0
1 1 0 0 0 0 0 1 1 0 0 0 0 0 0 0 0 0 -0 -0 -0 -0
1 1 1 1 1 1 1 1 1 1 1 1 0 0 0 0 0 0 0 0 0 0
1 1 2 1 1 1 1 1 1 1 1 1 1 0 0 0 0 0 0 0 0 0
1 2 1 1 1 1 1 1 1 1 1 1 1 0 0 0 0 0 1 1 0 0
0 0 1 2 2 1 1 1 1 1 1 1 1 1 0 0 0 1 0 1 1 0
0 0 0 1 0 1 1 2 1 1 1 1 1 1 0 0 1 1 0 0 0 0
Wind_Speed_500mb
46 38 28 26 24 20 20 19 19 18 18 17 17 18 20 18 18 18 13 13 13 9
52 46 34 31 29 28 23 18 22 19 21 19 16 17 20 18 24 21 18 15 18 13
56 52 45 44 35 34 31 30 20 25 23 22 21 19 16 20 22 23 21 19 22 22
55 54 51 48 44 38 38 35 33 32 30 26 22 21 23 23 22 24 22 23 24 24
56 55 53 51 50 42 39 41 42 36 38 33 29 28 27 25 22 23 22 21 23 23
48 51 56 56 55 52 45 43 41 40 40 38 37 34 34 32 28 27 24 22 23 24
48 52 53 51 57 58 56 49 46 47 43 42 41 38 38 38 37 34 31 30 29 27
41 42 47 51 52 58 61 60 51 50 52 48 44 41 41 43 43 41 38 34 33 33
37 38 42 43 47 52 61 64 63 60 56 58 53 50 53 49 44 44 42 40 38 37
32 36 40 41 44 47 53 58 65 69 67 65 65 63 64 63 56 49 48 46 43 41
26 32 34 37 41 44 46 51 59 64 70 72 72 68 69 72 70 66 57 53 50 49
27 31 36 41 41 43 43 45 51 56 63 73 78 76 73 71 74 70 80 70 64 59
16 24 31 34 39 42 45 46 45 50 56 62 75 77 78 76 74 68 69 75 79 85
13 18 16 19 32 41 46 47 50 54 58 56 64 76 80 78 78 71 67 72 73 71
Wind_Direction_500mb
239 235 231 229 213 232 210 217 219 211 203 196 194 194 199 201 198 214 209 208 194 209
242 238 230 225 228 221 228 220 220 207 203 198 196 201 203 194 204 205 215 223 228 211
242 242 243 239 231 226 223 230 217 215 211 206 207 209 203 222 214 213 219 224 235 222
239 239 240 245 242 238 230 228 225 224 217 222 223 222 221 208 215 224 228 228 233 240
235 237 238 243 247 241 235 230 231 232 231 231 227 228 229 218 217 221 224 233 233 239
228 231 238 244 247 248 244 238 231 231 232 232 230 230 232 226 223 227 230 233 239 241
229 230 235 238 241 246 250 247 244 235 232 234 235 235 231 232 232 234 238 238 241 246
234 234 233 236 236 239 241 247 245 244 241 234 233 237 235 231 234 238 239 244 244 244
233 235 234 235 238 238 241 242 244 243 243 243 235 236 237 236 235 237 240 245 249 242
243 238 238 238 236 235 236 237 240 242 244 244 247 237 236 242 240 240 246 244 243 246
248 245 243 241 237 240 237 236 237 240 242 244 246 246 245 243 245 246 241 243 247 247
263 260 257 253 250 242 241 238 237 239 240 242 245 245 246 245 244 243 247 245 246 245
290 270 265 256 257 257 250 249 244 242 242 241 243 246 245 245 245 241 243 247 253 252
6 351 328 291 268 254 251 250 251 253 245 242 245 244 245 243 243 241 244 243 244 249
Wind_Speed_850mb
46 38 28 26 24 20 20 19 19 18 18 17 17 18 20 18 18 18 13 13 13 9
52 46 34 31 29 28 23 18 22 19 21 19 16 17 20 18 24 21 18 15 18 13
56 52 45 44 35 34 31 30 20 25 23 22 21 19 16 20 22 23 21 19 22 22
55 54 51 48 44 38 38 35 33 32 30 26 22 21 23 23 22 24 22 23 24 24
56 55 53 51 50 42 39 41 42 36 38 33 29 28 27 25 22 23 22 21 23 23
48 51 56 56 55 52 45 43 41 40 40 38 37 34 34 32 28 27 24 22 23 24
48 52 53 51 57 58 56 49 46 47 43 42 41 38 38 38 37 34 31 30 29 27
41 42 47 51 52 58 61 60 51 50 52 48 44 41 41 43 43 41 38 34 33 33
37 38 42 43 47 52 61 64 63 60 56 58 53 50 53 49 44 44 42 40 38 37
32 36 40 41 44 47 53 58 65 69 67 65 65 63 64 63 56 49 48 46 43 41
26 32 34 37 41 44 46 51 59 64 70 72 72 68 69 72 70 66 57 53 50 49
27 31 36 41 41 43 43 45 51 56 63 73 78 76 73 71 74 70 80 70 64 59
16 24 31 34 39 42 45 46 45 50 56 62 75 77 78 76 74 68 69 75 79 85
13 18 16 19 32 41 46 47 50 54 58 56 64 76 80 78 78 71 67 72 73 71
Wind_Direction_850mb
239 235 231 229 213 232 210 217 219 211 203 196 194 194 199 201 198 214 209 208 194 209
242 238 230 225 228 221 228 220 220 207 203 198 196 201 203 194 204 205 215 223 228 211
242 242 243 239 231 226 223 230 217 215 211 206 207 209 203 222 214 213 219 224 235 222
239 239 240 245 242 238 230 228 225 224 217 222 223 222 221 208 215 224 228 228 233 240
235 237 238 243 247 241 235 230 231 232 231 231 227 228 229 218 217 221 224 233 233 239
228 231 238 244 247 248 244 238 231 231 232 232 230 230 232 226 223 227 230 233 239 241
229 230 235 238 241 246 250 247 244 235 232 234 235 235 231 232 232 234 238 238 241 246
234 234 233 236 236 239 241 247 245 244 241 234 233 237 235 231 234 238 239 244 244 244
233 235 234 235 238 238 241 242 244 243 243 243 235 236 237 236 235 237 240 245 249 242
243 238 238 238 236 235 236 237 240 242 244 244 247 237 236 242 240 240 246 244 243 246
248 245 243 241 237 240 237 236 237 240 242 244 246 246 245 243 245 246 241 243 247 247
263 260 257 253 250 242 241 238 237 239 240 242 245 245 246 245 244 243 247 245 246 245
290 270 265 256 257 257 250 249 244 242 242 241 243 246 245 245 245 241 243 247 253 252
6 351 328 291 268 254 251 250 251 253 245 242 245 244 245 243 243 241 244 243 244 249